Miscellaneous Local Product
Issued by NWS Hastings, NE

Home | Current Version | Previous Version | Graphics & Text | Print | Product List | Glossary On
Versions: 1 2 3 4 5 6 7 8 9 10 11 12 13 14 15 16 17 18 19 20 21 22 23 24 25 26 27 28 29 30 31 32 33 34 35 36 37 38 39 40 41 42 43 44 45 46 47 48 49 50
000
AXUS43 KGID 271102
MISGRI

GID CWA HOURLY WEATHER ROUNDUP
NATIONAL WEATHER SERVICE HASTINGS NE
600 AM CDT FRI MAY 27 2016

NOTE: "FAIR" INDICATES FEW OR NO CLOUDS BELOW 12,000 FEET WITH NO
SIGNIFICANT WEATHER AND/OR OBSTRUCTIONS TO VISIBILITY.

...SOUTH CENTRAL NEBRASKA...

CITY           SKY/WX    TMP DP  RH WIND       PRES   REMARKS
GRAND ISLAND   CLOUDY    59  56  89 CALM      29.71F
HASTINGS       PTCLDY    54  53  97 N3        29.68S
KEARNEY        CLEAR     55  54  94 W7        29.70S
ORD            CLOUDY    59  55  87 W8        29.72R
YORK           MOCLDY    57  55  94 NW5       29.70R
AURORA         CLOUDY    59  57  93 SE3       29.70S
LEXINGTON      MOCLDY    56  54  92 CALM      29.71F
HOLDREGE       PTCLDY    54  53  95 CALM      29.69F
HEBRON         MOCLDY    58  56  94 S6        29.64F

...NEBRASKA PANHANDLE...

CITY           SKY/WX    TMP DP  RH WIND       PRES   REMARKS
CHADRON        CLOUDY    46  44  93 W6        29.84S
ALLIANCE       LGT RAIN  51  49  92 N6        29.81S
SCOTTSBLUFF    CLOUDY    53  46  77 N13       29.83R
SIDNEY         LGT RAIN  49  47  93 N14       29.79F FOG

...WESTERN AND NORTH CENTRAL NEBRASKA...

CITY           SKY/WX    TMP DP  RH WIND       PRES   REMARKS
VALENTINE      CLOUDY    56  50  80 N8        29.72F
AINSWORTH      DRIZZLE   55  53  92 NW3       29.73S
ONEILL         MOCLDY    59  57  95 N7        29.70F
BROKEN BOW     PTCLDY    55  53  93 CALM      29.74S
IMPERIAL       CLOUDY    53  50  89 N3        29.73S
NORTH PLATTE   CLOUDY    56  54  93 CALM      29.74S
MCCOOK         CLOUDY    55  53  93 NE5       29.70F

...EASTERN NEBRASKA...

CITY           SKY/WX    TMP DP  RH WIND       PRES   REMARKS
NORFOLK        CLOUDY    59  56  89 SE9       29.71R
SO SIOUX CITY  CLOUDY    63  57  81 E6        29.72F
TEKAMAH        CLOUDY    62  58  86 NE7       29.71F
COLUMBUS       CLOUDY    61  54  77 SW5       29.74R
ALBION         CLOUDY    56  54  90 CALM      29.71R
OMAHA EPPLEY   CLOUDY    63  58  83 S3        29.72R
OFFUTT AFB     CLOUDY    61  60  97 N5        29.69R
MILLARD        CLOUDY    62  59  91 CALM      29.70R
LINCOLN        CLOUDY    60  58  92 N7        29.68F
NEBRASKA CITY  CLOUDY    62  59  92 SE9G16    29.63R
BEATRICE       CLOUDY    59  56  91 CALM      29.64F
FALLS CITY     LGT RAIN  61  60  97 E14       29.63F

...NORTHERN KANSAS...

CITY           SKY/WX    TMP DP  RH WIND       PRES   REMARKS
GOODLAND       CLOUDY    51  49  92 E3        29.70R
HILL CITY      CLOUDY    57  55  93 SE8       29.68S
NORTON         CLOUDY    55  52  88 E5        29.67F
PHILLIPSBURG   MOCLDY    57  57 100 NE3       29.69R
SMITH CENTER   CLEAR     54  54 100 NE3       29.69R
BELOIT         CLEAR     54  54 100 NE3       29.65S
HAYS           CLOUDY    27 N/A N/A SE8       29.65F WCI  18
RUSSELL        PTCLDY    56  55  97 SE12      29.64F
CONCORDIA      CLOUDY    55  54  96 N3        29.66R
SALINA         PTCLDY    59  57  93 SW6       29.67R
TOPEKA         PTCLDY    60  58  92 E8        29.66F



USA.gov is the U.S. government's official web portal to all federal, state and local government web resources and services.